User: anonymous   Login
Location: Bijele Vode
(45.2833°N, 16.2000°E)
Time: 22:53:11
(UTC+00:00)
Language:

METEOR M2 - Orbit

View from above orbital plane
View from above orbital plane
View from above satellite
View from above satellite

Ground track
Ground track

The orbit data is extracted from the following two-line orbital elements,

1 40069U 14037A   21335.49146951 -.00000037  00000-0  18547-5 0  9998
2 40069  98.4476 357.1851 0005901 165.9438 194.1906 14.20692204383756
Epoch (UTC): 01 December 2021 11:47:42
Eccentricity: 0.0005901
inclination: 98.4476°
perigee height: 819 km
apogee height: 827 km
right ascension of ascending node: 357.1851°
argument of perigee: 165.9438°
revolutions per day: 14.20692204
mean anomaly at epoch: 194.1906°
orbit number at epoch: 38375

The dashed part of the orbit path shows where the satellite is in the earth's shadow,  

DLR